Find Starlink 11453

NORAD ID: 62411 Int'l Des: 2024-249 Owner: SPXS Country: US Constellation: starlink operational
LEOCIRCULAR

現在のビュー

3D地球を読み込み中...

About Starlink 11453

Starlink 11453 (NORAD 62411) is a starlink constellation satellite (v2 mini d2c) launched Dec 23, 2024 by SPXS of US. It operates in LEO, CIRCULAR orbit with a mass of 960.00 kg.

Starlink 11453について

説明を読み込み中...

次回通過

Passes for default location (London). Set your location on the main map for personalized predictions.

高度履歴

Loading altitude history...

軌道要素

1 62411U 24249C 26169.67466999 .00109214 00000-0 84313-3 0 9994
2 62411 43.0002 278.8908 0001632 270.8592 89.2088 15.70849720 85362
Epoch: Jun 18, 2026 • Age: 7 hours

現在のステータス

高度 355.8 km
速度 7.70 km/s
衛星直下点 14.07°N, 170.06°W
打ち上げ日 Dec 23, 2024
運用期間 1.4 years
タイプ internet

技術仕様

分類 Payload
質量 960.00 kg
乾燥質量 910.00 kg
総質量 960.00 kg
長さ 0.30 m
直径 4.10 m
スパン 29.00 m
形状 Box + pan
製造者 SPXS
バスタイプ Starlink V2MD
フェーズステータス In Orbit
所有者/国 SPXS/US

Most Searched